This demonstration page uses our WeatherBlox Daily Observations layout. Learn more.

Left ArrowRight Arrow

39.51506, -84.39828

Hourly Observations for March 4, 2017

Temp ( °F °C ) Dew Point ( °F °C ) Humidity (%) Winds ( mph kmh ) Pressure ( in mb ) Visibility ( mi km ) Precip ( " mm )
12:15 am 00:15 Mostly Cloudy 28 -2.2 17 -8.4 63 63 Calm 30.68 1039 10 16 0.00 0.00
12:35 am 00:35 Mostly Cloudy 29 -1.5 18 -8 62 62 Calm 30.65 1038 10 16 0.00 0.00
12:55 am 00:55 Clear 27 -2.8 17 -8.2 67 67 Calm 30.68 1039 10 16 0.00 0.00
1:15 am 01:15 Clear 27 -2.8 18 -7.9 68 68 Calm 30.71 1040 10 16 0.00 0.00
1:35 am 01:35 Mostly Cloudy 24 -4.2 16 -8.7 71 71 Calm 30.68 1039 10 16 0.00 0.00
1:55 am 01:55 Mostly Cloudy 24 -4.2 17 -8.3 73 73 Calm 30.68 1039 10 16 0.00 0.00
2:15 am 02:15 Mostly Cloudy 26 -3.3 19 -7.4 74 74 Calm 30.68 1039 10 16 0.00 0.00
2:35 am 02:35 Cloudy 26 -3.6 18 -7.7 74 74 Calm 30.68 1039 10 16 0.00 0.00
2:55 am 02:55 Cloudy 27 -2.8 19 -7.5 70 70 Calm 30.68 1039 10 16 0.00 0.00
3:15 am 03:15 Cloudy 27 -2.8 19 -7.1 73 73 Calm 30.68 1039 10 16 0.00 0.00
3:35 am 03:35 Cloudy 29 -1.7 20 -6.4 71 71 Calm 30.68 1039 10 16 0.00 0.00
3:55 am 03:55 Cloudy 27 -2.8 19 -7.2 72 72 Calm 30.68 1039 10 16 0.00 0.00
4:15 am 04:15 Cloudy 27 -2.8 19 -7.5 70 70 Calm 30.68 1039 10 16 0.00 0.00
4:35 am 04:35 Cloudy 27 -2.8 19 -7 73 73 Calm 30.68 1039 10 16 0.00 0.00
4:55 am 04:55 Cloudy 29 -1.5 22 -5.5 74 74 Calm 30.65 1038 10 16 0.00 0.00
5:15 am 05:15 Cloudy 29 -1.5 22 -5.8 73 73 Calm 30.65 1038 10 16 0.00 0.00
5:35 am 05:35 Cloudy 29 -1.5 21 -6 72 72 Calm 30.71 1040 10 16 0.00 0.00
5:55 am 05:55 Cloudy 29 -1.5 20 -6.4 70 70 Calm 30.71 1040 10 16 0.00 0.00
6:15 am 06:15 Cloudy 29 -1.5 22 -5.5 74 74 Calm 30.71 1040 10 16 0.00 0.00
6:35 am 06:35 Cloudy 29 -1.5 21 -6 72 72 Calm 30.71 1040 10 16 0.00 0.00
6:55 am 06:55 Cloudy 29 -1.5 17 -8.2 61 61 SSE 3 6 30.71 1040 10 16 0.00 0.00
7:15 am 07:15 Cloudy 29 -1.5 13 -10.4 51 51 SE 7 11 30.71 1040 10 16 0.00 0.00
7:35 am 07:35 Cloudy with Light Snow 29 -1.5 15 -9.4 55 55 SE 7 11 30.71 1040 10 16 0.00 0.00
7:55 am 07:55 Cloudy with Light Snow 29 -1.5 19 -7.1 66 66 SE 3 6 30.71 1040 3 4 0.00 0.00
8:15 am 08:15 Cloudy with Snow 29 -1.5 23 -5 77 77 Calm 30.74 1041 1 1 0.00 0.00
8:35 am 08:35 Cloudy with Light Snow 29 -1.5 24 -4.7 79 79 Calm 30.74 1041 2 3 0.00 0.00
8:55 am 08:55 Cloudy with Light Snow 29 -1.5 24 -4.6 80 80 SE 3 6 30.74 1041 2 2 0.00 0.00
9:15 am 09:15 Cloudy with Light Snow 29 -1.5 24 -4.7 79 79 SE 6 9 30.74 1041 1 2 0.00 0.00
9:35 am 09:35 Cloudy with Light Snow 29 -1.5 23 -4.9 78 78 ESE 5 7 30.74 1041 2 3 0.00 0.00
9:55 am 09:55 Cloudy with Light Snow 29 -1.5 23 -5 77 77 ESE 7 11 30.74 1041 2 2 0.00 0.00
10:15 am 10:15 Cloudy with Light Snow 29 -1.5 23 -5 77 77 ESE 5 7 30.74 1041 2 3 0.00 0.00
10:35 am 10:35 Cloudy 30 -0.9 23 -4.8 75 75 SSE 8 13 30.71 1040 7 11 0.00 0.00
10:55 am 10:55 Cloudy 31 -0.7 23 -5 73 73 ESE 8 13 30.71 1040 10 16 0.00 0.00
11:15 am 11:15 Cloudy 32 -0.1 24 -4.7 71 71 ESE 6 9 30.71 1040 10 16 0.00 0.00
11:35 am 11:35 Cloudy 32 0 24 -4.7 71 71 E 7 11 30.71 1040 10 16 0.00 0.00
11:55 am 11:55 Cloudy 34 1 25 -3.8 71 71 E 6 9 30.68 1039 10 16 0.00 0.00
12:15 pm 12:15 Cloudy 34 1.2 25 -4.1 68 68 ESE 7 11 30.68 1039 10 16 0.00 0.00
12:35 pm 12:35 Cloudy 34 1.2 24 -4.3 67 67 ESE 6 9 30.68 1039 10 16 0.00 0.00
12:55 pm 12:55 Cloudy 34 1.2 24 -4.5 66 66 E 9 15 30.65 1038 10 16 0.00 0.00
1:15 pm 13:15 Cloudy 34 1.3 24 -4.7 65 65 E 8 13 30.65 1038 10 16 0.00 0.00
1:35 pm 13:35 Cloudy 37 2.6 25 -4.1 62 62 ENE 9 15 30.62 1037 10 16 0.00 0.00
1:55 pm 13:55 Cloudy 37 2.6 24 -4.6 59 59 ESE 10 17 30.62 1037 10 16 0.00 0.00
2:15 pm 14:15 Cloudy 39 4 25 -4 56 56 ENE 9 15 30.59 1036 10 16 0.00 0.00
2:35 pm 14:35 Partly Cloudy 39 3.7 24 -4.7 55 55 E 8 13 30.59 1036 10 16 0.00 0.00
2:55 pm 14:55 Partly Cloudy 39 4 24 -4.7 53 53 E 10 17 30.59 1036 10 16 0.00 0.00
3:15 pm 15:15 Partly Cloudy 39 4 22 -5.3 51 51 ESE 7 11 30.59 1036 10 16 0.00 0.00
3:35 pm 15:35 Partly Cloudy 40 4.6 23 -5.2 49 49 SE 7 11 30.59 1036 10 16 0.00 0.00
3:55 pm 15:55 Partly Cloudy 40 4.7 22 -5.4 48 48 E 8 13 30.59 1036 10 16 0.00 0.00
4:15 pm 16:15 Partly Cloudy 40 4.7 22 -5.6 48 48 E 7 11 30.56 1035 10 16 0.00 0.00
4:35 pm 16:35 Sunny 40 4.7 22 -5.7 47 47 E 10 17 30.56 1035 10 16 0.00 0.00
4:55 pm 16:55 Sunny 40 4.7 22 -5.6 48 48 E 12 19 30.56 1035 10 16 0.00 0.00
5:15 pm 17:15 Sunny 40 4.7 23 -5.1 49 49 ENE 10 17 30.56 1035 10 16 0.00 0.00
5:35 pm 17:35 Sunny 39 4 22 -5.5 50 50 ENE 10 17 30.56 1035 10 16 0.00 0.00
5:55 pm 17:55 Sunny 39 4 23 -5.1 52 52 ENE 10 17 30.56 1035 10 16 0.00 0.00
6:15 pm 18:15 Sunny 39 4 24 -4.7 53 53 ENE 8 13 30.56 1035 10 16 0.00 0.00
6:35 pm 18:35 Clear 37 2.6 22 -5.5 56 56 ENE 10 17 30.56 1035 10 16 0.00 0.00
6:55 pm 18:55 Clear 37 2.6 23 -5.1 57 57 ENE 10 17 30.56 1035 10 16 0.00 0.00
7:15 pm 19:15 Clear 37 2.6 24 -4.7 59 59 ENE 9 15 30.56 1035 10 16 0.00 0.00
7:35 pm 19:35 Clear 36 2.2 23 -4.9 60 60 NE 9 15 30.56 1035 10 16 0.00 0.00
7:55 pm 19:55 Clear 34 1.2 22 -5.6 61 61 ENE 8 13 30.56 1035 10 16 0.00 0.00
8:15 pm 20:15 Clear 34 1.2 22 -5.3 62 62 NE 8 13 30.56 1035 10 16 0.00 0.00
8:35 pm 20:35 Clear 34 1.2 22 -5.5 61 61 NE 7 11 30.56 1035 10 16 0.00 0.00
8:55 pm 20:55 Clear 34 1.2 22 -5.7 60 60 ENE 7 11 30.56 1035 10 16 0.00 0.00
9:15 pm 21:15 Clear 34 1.2 22 -5.5 61 61 NE 6 9 30.56 1035 10 16 0.00 0.00
9:35 pm 21:35 Clear 34 1.2 22 -5.4 62 62 NE 6 9 30.56 1035 10 16 0.00 0.00
9:55 pm 21:55 Clear 34 1.2 22 -5.7 60 60 NE 5 7 30.56 1035 10 16 0.00 0.00
10:15 pm 22:15 Clear 34 1.2 22 -5.5 61 61 NE 6 9 30.56 1035 10 16 0.00 0.00
10:35 pm 22:35 Clear 34 1.2 22 -5.5 61 61 ENE 6 9 30.56 1035 10 16 0.00 0.00
10:55 pm 22:55 Clear 34 1.2 22 -5.3 62 62 ENE 5 7 30.56 1035 10 16 0.00 0.00
11:15 pm 23:15 Clear 32 0 20 -6.7 61 61 NE 5 7 30.56 1035 10 16 0.00 0.00
11:35 pm 23:35 Clear 32 0 20 -6.4 62 62 NE 3 6 30.56 1035 10 16 0.00 0.00
11:55 pm 23:55 Clear 33 0.7 21 -6 61 61 NE 3 6 30.56 1035 10 16 0.00 0.00

Powered by AerisWeather